This demonstration page uses our WeatherBlox Daily Observations layout. Learn more.

Left ArrowRight Arrow

34.16533, -84.80231

Hourly Observations for February 9, 2015

Temp ( °F °C ) Dew Point ( °F °C ) Humidity (%) Winds ( mph kmh ) Pressure ( in mb ) Visibility ( mi km ) Precip ( " mm )
12:53 am 00:53 Cloudy 60 15.6 46 7.8 60 60 SSW 3 6 29.87 1012 10 16 0.00 0.00
1:53 am 01:53 Cloudy 60 15.6 46 7.8 60 60 VRB 3 6 29.85 1011 10 16 0.00 0.00
2:53 am 02:53 Cloudy 60 15.6 47 8.3 62 62 VRB 3 6 29.84 1011 10 16 0.00 0.00
3:53 am 03:53 Cloudy 54 12.2 52 11.1 93 93 Calm 29.83 1010 10 16 0.02 0.51
4:51 am 04:51 Cloudy with Light Rain 57 14 52 11 82 82 Calm 29.85 1011 9 14 0.00 0.03
4:53 am 04:53 Cloudy with Light Rain 57 13.9 51 10.6 81 81 VRB 3 6 29.82 1010 10 16 0.00 0.03
5:53 am 05:53 Cloudy 56 13.3 52 11.1 87 87 Calm 29.83 1010 10 16 0.00 0.03
6:53 am 06:53 Cloudy with Rain 55 12.8 53 11.7 93 93 Calm 29.82 1010 4 6 0.03 0.76
7:00 am 07:00 Cloudy with Light Rain 55 12.8 53 11.7 93 93 Calm 29.83 1010 5 8 0.01 0.25
7:21 am 07:21 Cloudy with Light Rain 55 12.8 53 11.7 93 93 Calm 29.83 1010 6 10 0.02 0.51
7:32 am 07:32 Cloudy with Rain 55 12.8 53 11.7 93 93 Calm 29.83 1010 3 5 0.04 1.02
7:53 am 07:53 Cloudy with Light Rain 55 12.8 53 11.7 93 93 Calm 29.83 1010 6 10 0.05 1.27
8:28 am 08:28 Cloudy with Mist and Fog 55 12.8 53 11.7 93 93 Calm 29.83 1010 3 5 0.01 0.25
8:53 am 08:53 Cloudy with Mist and Fog 55 12.8 53 11.7 93 93 Calm 29.82 1010 3 4 0.02 0.51
9:02 am 09:02 Cloudy with Light Rain 55 12.8 53 11.7 93 93 Calm 29.83 1010 1 2 0.02 0.51
9:09 am 09:09 Cloudy with Rain 55 12.8 54 12.2 96 96 Calm 29.83 1010 1 2 0.04 1.02
9:15 am 09:15 Cloudy with Nearby Thunderstorms 55 12.8 54 12.2 96 96 Calm 29.83 1010 1 2 0.06 1.52
9:27 am 09:27 Cloudy with Nearby Thunderstorms 55 12.8 54 12.2 96 96 Calm 29.83 1010 2 3 0.07 1.78
9:38 am 09:38 Cloudy with Light Rain 55 12.8 54 12.2 96 96 Calm 29.83 1010 3 4 0.09 2.29
9:53 am 09:53 Cloudy with Mist and Fog 56 13.3 54 12.2 93 93 Calm 29.80 1009 5 8 0.09 2.29
10:02 am 10:02 Cloudy with Mist and Fog 56 13.3 54 12.2 93 93 Calm 29.83 1010 5 8 0.00 0.00
10:22 am 10:22 Cloudy with Mist and Fog 56 13.3 54 12.2 93 93 Calm 29.83 1010 4 6 0.00 0.00
10:30 am 10:30 Cloudy with Mist and Fog 56 13.3 54 12.2 93 93 Calm 29.83 1010 5 8 0.00 0.00
10:53 am 10:53 Cloudy with Mist and Fog 56 13.3 54 12.2 93 93 Calm 29.82 1010 5 8 0.00 0.00
11:21 am 11:21 Cloudy 57 13.9 54 12.2 90 90 Calm 29.83 1010 7 11 0.00 0.00
11:53 am 11:53 Cloudy 59 15 54 12.2 83 83 Calm 29.80 1009 9 14 0.00 0.00
12:24 pm 12:24 Cloudy 59 15 54 12.2 83 83 VRB 5 7 29.83 1010 9 14 0.00 0.00
12:40 pm 12:40 Cloudy 59 15 54 12.2 83 83 Calm 29.80 1009 8 13 0.00 0.00
12:48 pm 12:48 Cloudy with Rain 59 15 54 12 82 82 Calm 29.80 1009 3 5 0.02 0.51
12:53 pm 12:53 Cloudy with Light Rain 58 14.4 54 12.2 87 87 Calm 29.78 1008 3 5 0.03 0.76
1:01 pm 13:01 Cloudy with Light Rain 58 14.4 54 12.2 87 87 Calm 29.80 1009 4 6 0.00 0.03
1:09 pm 13:09 Cloudy with Light Rain 58 14.4 54 12.2 87 87 Calm 29.80 1009 3 5 0.01 0.25
1:36 pm 13:36 Cloudy 61 16.1 55 12.8 81 81 Calm 29.77 1008 9 14 0.01 0.25
1:53 pm 13:53 Cloudy 61 16.1 54 12.2 78 78 Calm 29.74 1007 10 16 0.01 0.25
2:24 pm 14:24 Mostly Cloudy 63 17.2 54 12.2 73 73 Calm 29.77 1008 10 16 0.00 0.00
2:37 pm 14:37 Cloudy with Light Rain 58 14.4 53 11.7 84 84 Calm 29.74 1007 2 3 0.05 1.27
2:45 pm 14:45 Cloudy 58 14.4 54 12.2 87 87 Calm 29.74 1007 10 16 0.05 1.27
2:53 pm 14:53 Cloudy 58 14.4 55 12.8 90 90 Calm 29.73 1007 10 16 0.05 1.27
3:53 pm 15:53 Partly Cloudy 59 15 54 12.2 83 83 Calm 29.73 1007 10 16 0.02 0.51
4:53 pm 16:53 Cloudy 60 15.6 50 10 70 70 VRB 3 6 29.74 1007 10 16 0.00 0.00
5:53 pm 17:53 Mostly Cloudy 58 14.4 46 7.8 65 65 NNW 12 19 29.78 1009 10 16 0.00 0.00
6:53 pm 18:53 Mostly Cloudy 53 11.7 44 6.7 72 72 VRB 6 9 29.81 1010 9 14 0.00 0.00
7:53 pm 19:53 Cloudy 50 10 42 5.6 74 74 VRB 6 9 29.85 1011 8 13 0.00 0.00
8:53 pm 20:53 Cloudy 47 8.3 39 3.9 74 74 NNW 5 7 29.88 1012 10 16 0.00 0.00
9:53 pm 21:53 Cloudy 45 7.2 38 3.3 77 77 VRB 7 11 29.89 1012 10 16 0.00 0.00
10:53 pm 22:53 Cloudy 43 6.1 36 2.2 76 76 NNW 8 13 29.90 1013 10 16 0.00 0.00
11:53 pm 23:53 Cloudy 42 5.6 35 1.7 76 76 VRB 6 9 29.90 1013 10 16 0.00 0.00

Powered by AerisWeather